Location: Risskov
(56.1972°N, 10.2480°E)
Time: 23:30:48
(UTC+00:00)

BREEZE-M DEB (TANK) - Pass Details

Date: 05 July 2020
Orbit: 327 x 12050 km, 49.6° (Epoch: 03 August)

Event Time Altitude Azimuth Distance (km) Brightness Sun altitude
Rises 22:33:35 0° 273° (W) 3,719 6.5 -10.4°
Reaches altitude 10° 22:37:32 10° 256° (WSW) 1,905 4.8 -10.5°
Maximum altitude 22:40:06 18° 210° (SSW) 1,099 3.2 -10.6°
Enters shadow 22:40:50 16° 189° (S) 1,085 3.0 -10.6°
